THORAD AGENA D DEB, 42541

Orbit data source: Space-Track

THORAD AGENA D DEB, 42541 is space debris in SSO originally from a launch on Wed, 08 Apr 1970 UTC launched from the Air Force Western Test Range (AFWTR). Debris objects in space refer to the collection of defunct objects orbiting the Earth. Examples of debris include non-operational satellites, rocket bodies, and fragments generated from explosions, collisions, or faulty payload assembly.

Loading next visibility...
Identifier
42541, 1970-025SX
Orbit
SSO
Country
Flag of USUS
Related business
Manufacturer
Unknown
Mission
Spacecraft
Bus & Motor
Unknown
Mass
Unknown
Launch date (UTC)
1970-04-08 (56 years ago)
Launch vehicle
Unknown
Launch site
Air Force Western Test Range (AFWTR)
Object type
Payload
Rocket body
Debris
Shape & HBR
Unknown shape, 0.1 m
Radar Cross Section
Small (<0.1 m²)

Expand to show TLE details & history
Last TLE update: 11 hours ago

TLE from 11 hours ago
0 THORAD AGENA D DEB
1 42541U 70025SX  25300.93868110  .00000664  00000-0  76731-3 0  9999
2 42541 100.0771 187.2465 0032727  93.6506 280.1136 13.73120367597035
Epoch: 2025-10-27T22:31Z
TLE epoch observation values (Epoch: 2025-10-27T22:31:42.047Z)
Latitude
13.15048°
Longitude
170.42069°
Altitude
986.29 km
Speed
7.362 km/s
True Right ascension
12h 19m 31s
True Declination
13° 04' 37"
Sunlit
Object was in daylight at epoch
Visualization orbit readout
Latitude
Unknown
Longitude
Unknown
Altitude
Unknown
Speed
Unknown
Apparent Right ascension
Unknown
Apparent Declination
Unknown
Sunlit
N/A
Visualization observer readout
Local Sidereal Time
05:23:54
Azimuth
Unknown
Elevation
Unknown
Doppler factor
Unknown
Orbital elements
Apogee altitude
1,009.78 km
Perigee altitude
961.581 km
Semi-major axis
7,363.817 km
Eccentricity
0.00327
Inclination
100.0771°
RAAN
187.2465°
Arg. of periapsis
93.6506°
True anomaly
279.74414°
Mean anomaly
280.1136°
Eccentric anomaly
279.9289°
Mean motion
3.4347 °/min
Orbital period
104.81 mins
BSTAR
0.00076731
Loading maneuver chart data...
Computing Atmospheric mass density...

Documentation

Showing up to 5 results
|